星链-36437(STARLINK-36437)

导读 | 豆包AI

STARLINK-36437是美国太空探索技术公司(SpaceX)星链(Starlink)星座中的一颗卫星,于2026年1月14日成功发射。星链项目旨在构建全球卫星互联网星座,为全球偏远地区、海洋等缺乏地面网络覆盖的区域提供高速宽带互联网服务,支持流媒体、视频通话、在线游戏等日常互联网应用,推动全球互联网接入的普及与均衡发展。

基本信息
目录编号:
67465
目录名称:
STARLINK-36437
国际标识:
2026-008W
轨道中心:
EARTH
卫星名称:
星链-36437
卫星全名:
星链-36437(STARLINK-36437)
卫星状态:
在轨 (已飞行131 天)
发射日期:
2026-01-14 UTC
国别 :
美国 (US)
星等 :
--
轨道信息
数据来源 国际轨道数据
星历时间: 2026-05-25T07:41:49+0800
9小时前
查看轨道信息
半长轴: 6861.214km
偏心率: 0.0001328
轨道倾角: 42.999°
近地点辐角 279.956°
升交点赤经 134.095°
平近点角 80.114°
近地点: 482.165km
远地点: 483.989km
周期: 94.267分钟
每日圈数: 15.275709
详细信息
固有亮度:
5
最大亮度:
2.5
卫星平台:
Starlink V1.0
覆盖范围:
全球
运营商:
太空探索技术公司
运营商所在国:
美国
制造商(研发单位):
太空探索技术公司
制造商所在国:
美国
使用方式:
暂无
卫星简介
Starlink 计划是 SpaceX 推出的全球卫星互联网项目,通过发射低轨道卫星,为全球尤其是偏远地区提供高速、低延迟的互联网服务。自 2019 年起,Starlink 已部署数千颗卫星,旨在缩小全球数字鸿沟,推动互联网普及。该项目还为军事、航空等行业提供通信支持,带来广泛经济效益。
2D轨道图
3D轨道图
轨道高度分析图
轨道倾角分析图
轨道综合分析图
查看轨道综合分析图